Date,TemperatureHighF,TemperatureAvgF,TemperatureLowF,DewpointHighF,DewpointAvgF,DewpointLowF,HumidityHigh,HumidityAvg,HumidityLow,PressureMaxIn,PressureMinIn,WindSpeedMaxMPH,WindSpeedAvgMPH,GustSpeedMaxMPH,PrecipitationSumIn
2013-5-1,66.8,56.6,51.5,45.7,32.1,25.4,48,40,29,30.20,30.12,2,0,4,0.00
2013-5-2,58.0,52.4,50.4,33.8,28.7,26.3,46,40,34,30.22,30.10,5,0,5,0.01
2013-5-3,51.5,49.3,47.7,28.2,26.2,23.2,44,41,34,30.16,29.97,4,0,4,0.05
2013-5-4,47.9,44.9,41.8,25.2,22.4,16.9,42,41,36,30.02,29.86,4,1,5,0.14
2013-5-5,47.9,46.1,43.9,25.7,24.2,22.2,43,42,42,29.90,29.74,3,1,4,0.96
2013-5-6,53.3,45.9,38.9,26.1,18.1,9.5,42,34,20,29.88,29.72,4,0,4,0.12
2013-5-7,63.5,46.5,34.4,41.6,16.2,4.5,52,31,10,29.94,29.83,2,0,3,0.00
2013-5-8,63.0,52.5,43.0,31.0,11.3,1.0,30,20,8,30.05,29.84,3,0,4,0.10
2013-5-9,76.1,59.5,46.8,49.3,25.4,-1.1,47,29,2,30.12,30.01,2,0,2,0.00
2013-5-10,67.5,58.6,48.6,40.0,9.5,-4.0,37,14,1,30.12,29.99,3,0,4,0.00
2013-5-11,67.3,58.3,52.7,28.6,3.2,-2.3,24,5,1,30.01,29.87,2,0,3,0.00
2013-5-12,63.9,52.6,43.6,35.7,14.8,-7.2,51,23,1,30.03,29.87,3,0,4,0.00
2013-5-13,63.0,47.4,39.1,30.6,25.1,19.5,52,43,26,30.13,30.00,2,0,4,0.00
2013-5-14,71.1,52.7,34.7,46.7,24.0,-16.1,52,35,5,30.19,30.09,3,0,4,0.00
2013-5-15,83.3,67.2,51.1,54.3,29.9,-3.6,48,26,1,30.13,30.02,2,0,3,0.00
2013-5-16,74.5,62.9,51.7,50.4,25.8,-3.2,47,26,1,30.10,29.99,2,0,3,0.00
2013-5-17,58.0,54.7,52.7,1.6,-0.8,-2.3,1,1,1,30.08,30.05,0,0,0,0.00
2013-5-18,60.1,57.8,56.0,3.4,1.6,0.2,2,1,1,30.12,30.04,2,0,2,0.81
2013-5-19,63.7,60.2,56.9,6.1,3.5,0.8,1,1,1,30.12,30.01,1,0,2,0.52
2013-5-20,59.2,56.3,53.5,2.7,0.5,-1.8,1,1,1,30.08,30.08,0,0,0,0.00
2013-5-21,79.2,62.9,56.5,38.6,5.8,0.5,26,2,1,30.09,29.97,2,0,2,0.95
2013-5-22,71.5,61.3,54.4,12.1,4.3,-1.1,1,1,1,30.06,29.91,1,0,1,0.81
2013-5-23,70.9,61.9,56.5,43.3,11.2,0.5,38,9,1,29.98,29.90,2,0,2,0.31
2013-5-24,64.6,57.0,48.1,38.6,17.4,-4.0,45,21,1,30.18,29.93,2,0,2,0.00
2013-5-25,70.4,55.5,40.5,45.4,25.1,-11.8,46,32,1,30.25,30.15,3,0,3,0.00
2013-5-26,69.1,56.5,46.6,46.0,15.7,-5.7,45,21,1,30.24,30.15,1,0,1,0.00
2013-5-27,71.6,61.4,47.5,49.1,18.4,-6.3,45,18,1,30.25,30.15,2,0,3,0.00
2013-5-28,73.8,64.0,55.4,39.3,9.6,-0.2,32,5,1,30.23,30.14,2,0,3,0.00
2013-5-29,75.6,65.1,56.2,42.1,13.1,-10.7,35,8,1,30.25,30.17,2,0,3,0.00
2013-5-30,74.5,63.5,55.6,28.3,6.2,-0.1,20,2,1,30.28,30.17,2,0,3,0.00
2013-5-31,74.2,64.9,58.0,14.2,7.0,1.6,1,1,1,30.25,30.11,2,0,3,0.00